This is the latest recevied weather packets stored in our database for station/object KB4MOX. If no packets are shown the sender has not sent any weather packets the latest 10 day(s).
| Time | Temp. | Humidity | Pressure | Rain* | Wind** | Luminosity | Snow |
|---|---|---|---|---|---|---|---|
| 1777683575 | 16.11° C | 81% | 1012.4 hPa | 0 mm | - | 0 W/m² | - |
| 1777683274 | 16.67° C | 81% | 1012.2 hPa | 0 mm | - | 0 W/m² | - |
| 1777682972 | 16.67° C | 81% | 1012.3 hPa | 0 mm | - | 0 W/m² | - |
| 1777682667 | 16.67° C | 80% | 1012.2 hPa | 0 mm | - | 0 W/m² | - |
| 1777682364 | 16.67° C | 78% | 1012.3 hPa | 0 mm | - | 0 W/m² | - |
| 1777682062 | 17.22° C | 79% | 1012.1 hPa | 0 mm | - | 0 W/m² | - |
| 1777681758 | 17.22° C | 79% | 1012.1 hPa | 0 mm | - | 0 W/m² | - |
| 1777681456 | 17.22° C | 77% | 1012.2 hPa | 0 mm | - | 0 W/m² | - |
| 1777681153 | 17.22° C | 76% | 1012.3 hPa | 0 mm | - | 1 W/m² | - |
| 1777680850 | 17.22° C | 76% | 1012.2 hPa | 0 mm | - | 1 W/m² | - |
| 1777680548 | 17.78° C | 75% | 1012.3 hPa | 0 mm | - | 2 W/m² | - |
| 1777680246 | 17.78° C | 75% | 1012.1 hPa | 0 mm | - | 3 W/m² | - |
| 1777679941 | 17.78° C | 75% | 1012.2 hPa | 0 mm | - | 5 W/m² | - |
| 1777679637 | 17.78° C | 74% | 1012.2 hPa | 0 mm | - | 5 W/m² | - |
| 1777679333 | 17.78° C | 73% | 1012.2 hPa | 0 mm | - | 6 W/m² | - |
| 1777679030 | 18.33° C | 74% | 1012.1 hPa | 0 mm | - | 6 W/m² | - |
| 1777678728 | 18.33° C | 72% | 1012 hPa | 0 mm | - | 10 W/m² | - |
| 1777678425 | 18.33° C | 71% | 1012.2 hPa | 0 mm | - | 20 W/m² | - |
| 1777678121 | 18.33° C | 71% | 1012.2 hPa | 0 mm | - | 23 W/m² | - |
| 1777677818 | 18.89° C | 70% | 1012.2 hPa | 0 mm | - | 25 W/m² | - |
| 1777677516 | 18.89° C | 69% | 1012 hPa | 0 mm | - | 20 W/m² | - |
| 1777677213 | 18.89° C | 68% | 1012 hPa | 0 mm | - | 14 W/m² | - |
| 1777676912 | 18.89° C | 65% | 1011.6 hPa | 0 mm | - | 30 W/m² | - |
| 1777676611 | 19.44° C | 61% | 1011.5 hPa | 0 mm | - | 43 W/m² | - |
| 1777676308 | 20° C | 63% | 1011.5 hPa | 0 mm | - | 46 W/m² | - |
* Rain latest hour (hover to see other rain measurements)
** Current wind speed in m/s (hover to see current wind gust speed)